Theta_e
349 347 347 345 342 342 340 341 339 337 339 335 331 331 332 333 330 322 317 315 314 315 318 321 322 327 332 334 335 337 338 339 342 343 343 342 342 343 343 344 344 344 344 344 344 344 343 343 342 341 341 341 340 341 340 339 339 339 339 339 339 339 339 339 339 339 338 338 338 337 336 336 335 333 332 331 331 332 332 332 332 333 334 335 335
348 348 348 345 341 341 340 341 339 338 340 335 331 331 332 334 329 321 317 316 315 315 318 321 322 328 333 334 334 336 338 340 342 343 343 343 343 344 344 344 344 344 343 343 343 343 342 342 340 340 339 338 338 338 337 337 338 338 338 338 339 339 338 338 337 335 334 333 334 335 335 335 335 334 333 333 332 332 332 331 330 331 332 333 333
345 348 348 345 340 340 342 341 338 339 339 335 331 331 333 334 328 321 318 316 315 316 318 320 322 329 334 335 336 339 340 342 343 343 343 343 343 344 344 344 344 344 343 343 342 342 342 341 340 339 338 336 336 335 333 335 337 337 338 338 339 338 336 335 333 332 331 331 333 334 335 336 335 335 334 333 332 332 332 331 331 331 331 331 332
343 347 347 347 342 340 342 341 339 339 339 335 332 332 334 334 328 321 318 317 316 316 318 319 325 332 335 338 340 341 342 343 344 343 343 343 344 344 344 344 344 343 343 343 342 342 342 341 340 339 338 336 334 331 332 335 337 337 337 338 338 337 334 333 332 331 328 327 328 330 333 334 335 335 335 333 330 330 331 331 330 329 330 330 331
343 346 347 348 346 343 342 341 340 340 338 334 332 333 334 334 329 322 319 319 318 317 319 323 330 335 336 340 341 341 342 343 344 343 344 344 344 344 344 344 343 343 342 342 342 342 342 341 339 338 338 336 331 329 333 335 334 336 338 339 338 337 336 335 334 332 328 326 325 326 329 331 333 334 334 333 330 329 330 330 330 330 330 330 329
343 347 348 348 347 345 343 342 341 341 337 333 333 333 334 334 329 322 319 321 323 323 325 330 335 336 338 341 341 342 343 343 344 344 344 344 344 344 344 343 343 343 342 342 341 340 339 336 332 332 334 334 330 329 334 334 333 335 337 338 339 338 337 336 336 335 332 329 328 327 329 331 333 333 334 333 330 329 329 329 329 330 330 328 328
346 348 348 348 347 345 343 342 343 341 338 335 335 334 335 334 329 322 320 323 329 331 334 336 337 337 340 341 340 342 343 343 344 344 344 344 344 343 344 343 343 342 340 340 338 336 335 331 325 323 325 328 329 330 332 332 333 334 335 337 338 338 338 337 337 338 335 332 330 331 333 333 334 333 333 333 331 330 330 329 328 329 330 330 328
347 348 347 348 347 345 343 343 343 341 339 337 335 335 335 335 329 322 321 325 331 335 338 338 338 339 341 341 341 342 343 343 343 344 344 343 343 343 343 342 342 340 339 338 338 337 336 334 329 322 320 320 322 328 330 330 331 332 333 333 333 334 334 335 334 336 335 333 331 333 334 335 335 333 332 331 331 331 331 331 330 330 330 330 329
347 347 347 347 347 345 344 343 343 341 340 337 335 335 336 335 329 323 323 327 332 337 339 339 340 340 340 341 342 343 343 343 343 344 343 343 343 342 342 341 340 338 336 336 337 336 336 335 329 324 323 318 316 321 326 328 328 329 329 329 330 332 333 333 333 335 334 331 332 333 333 334 334 332 330 329 330 330 330 331 330 329 330 331 330
347 347 347 347 347 345 344 343 343 341 338 336 336 336 336 336 328 323 325 329 335 337 339 340 340 340 340 341 342 343 343 343 343 343 343 343 342 341 340 340 339 338 335 335 335 335 335 332 324 323 323 316 314 317 322 325 325 325 327 330 332 333 333 333 334 334 332 330 332 332 332 332 332 332 331 329 331 331 331 331 330 328 328 330 329
346 347 346 346 347 345 344 343 342 339 337 336 336 336 336 336 329 323 326 332 336 337 337 339 340 340 340 341 342 342 342 342 343 342 342 342 341 340 338 337 337 337 336 335 334 332 331 325 318 318 316 313 315 317 320 323 324 327 330 333 333 332 332 332 332 332 330 329 330 331 331 330 328 329 330 330 332 333 333 332 332 330 327 329 330
345 345 345 346 346 345 344 343 341 339 338 337 336 337 337 336 329 322 325 331 336 338 338 339 340 340 340 340 341 342 342 341 342 342 342 342 340 338 335 334 333 331 331 331 330 328 322 317 315 313 312 315 317 318 321 323 327 330 332 333 333 331 331 331 331 331 330 329 329 330 329 329 329 330 331 331 332 332 333 333 332 331 328 330 333
343 343 344 345 345 344 343 342 341 340 338 337 337 337 337 335 327 320 322 327 335 338 338 339 339 340 339 340 341 342 341 340 341 342 341 341 339 338 334 331 329 328 328 329 329 325 316 313 313 312 315 319 320 322 324 327 331 332 333 334 332 331 331 330 330 330 329 327 327 328 327 328 331 332 331 330 329 330 332 332 332 331 329 330 333
343 343 342 341 343 343 342 342 341 339 338 337 337 337 337 333 325 319 319 325 334 337 337 339 339 339 338 339 341 341 340 339 340 341 341 340 339 338 334 330 329 328 328 330 330 323 314 312 312 314 319 323 325 326 328 331 332 332 333 334 332 331 331 330 330 329 327 326 328 329 329 330 332 333 332 330 329 331 332 331 332 331 328 328 330
343 342 340 339 341 342 342 341 340 339 338 338 338 337 335 330 322 319 321 327 335 338 337 338 338 338 338 338 340 340 339 339 339 339 340 340 339 338 334 330 329 328 328 330 330 323 315 312 313 317 324 326 328 329 331 332 332 332 334 334 332 331 332 331 330 328 326 327 330 330 330 332 333 333 333 332 331 332 331 329 330 330 328 327 328
343 340 340 341 341 342 341 340 339 339 338 338 337 335 331 325 322 324 328 331 334 336 336 337 337 338 337 337 338 339 339 338 338 338 339 339 337 336 333 329 329 329 330 329 329 326 317 312 315 321 328 329 330 331 331 332 332 333 334 334 332 332 332 330 328 326 326 327 329 330 329 330 333 334 333 331 330 332 331 329 329 329 328 327 327
342 340 342 343 342 342 341 340 339 339 338 337 335 332 328 326 329 332 333 334 334 334 333 335 337 337 337 337 337 337 338 338 337 337 338 337 335 335 332 329 329 330 330 330 330 328 319 312 315 323 330 331 331 331 332 332 332 334 334 333 333 332 331 329 327 325 327 330 331 331 330 329 331 333 332 331 331 331 331 330 329 328 327 326 326
342 342 343 343 342 341 341 340 339 338 337 336 334 331 330 331 334 335 335 336 336 334 333 334 335 336 336 336 336 336 337 337 337 337 337 336 334 334 332 329 330 330 331 330 329 329 322 313 315 324 330 331 331 331 332 332 333 334 333 332 332 331 330 330 328 326 329 332 332 332 331 329 329 330 330 330 330 330 330 329 328 327 327 326 325
342 342 342 342 341 340 339 339 338 338 337 336 335 334 333 334 336 336 335 336 336 335 335 334 334 335 336 336 336 336 337 337 337 337 336 335 333 333 332 329 329 331 331 330 329 330 325 314 314 324 330 330 331 332 331 332 333 334 334 332 331 331 331 332 330 329 329 330 331 330 330 329 329 330 330 329 330 330 329 329 328 327 327 326 325
341 340 340 340 339 338 338 338 337 336 336 336 336 335 334 334 335 335 335 335 336 335 335 335 334 334 335 335 335 336 336 337 337 336 336 334 333 333 332 330 329 330 331 330 329 330 327 317 312 320 328 331 331 332 332 333 334 334 334 333 331 332 332 331 330 329 328 328 329 329 329 330 330 330 330 329 329 329 328 327 327 327 327 326 325
339 339 338 338 337 337 337 337 336 335 335 335 335 336 334 333 335 335 334 335 334 334 334 335 335 335 334 334 333 334 334 333 332 333 333 332 332 333 332 330 329 330 331 331 330 330 327 319 312 315 325 330 331 331 332 333 335 335 334 333 332 333 332 331 330 327 326 326 327 328 329 330 329 329 329 329 329 328 327 326 326 326 326 326 326
340 340 339 337 336 336 336 335 334 334 335 335 334 336 335 333 334 335 335 335 333 333 334 334 335 335 335 333 332 332 332 328 326 327 328 330 331 332 332 331 329 329 330 331 331 330 327 321 314 314 320 328 331 332 333 333 335 335 335 334 333 333 332 332 330 328 327 326 326 327 328 329 329 329 328 328 328 327 327 326 326 326 326 326 326
341 341 340 338 337 337 335 334 334 335 336 335 335 336 335 333 334 335 335 335 333 332 334 335 333 332 333 332 332 333 333 330 326 325 324 326 328 330 331 330 329 329 330 331 331 331 329 322 316 318 323 329 332 333 333 332 334 335 334 335 334 332 333 332 331 329 327 325 325 325 327 328 328 328 328 327 326 326 326 325 325 325 325 325 325
341 340 340 339 337 336 335 335 336 336 336 336 335 334 333 333 335 335 334 333 333 333 334 336 333 331 332 332 333 336 336 333 331 330 327 324 325 327 329 330 329 329 329 330 331 331 330 324 318 324 330 331 333 333 332 331 333 334 334 335 334 333 333 332 330 329 327 326 325 324 326 327 328 328 328 327 326 325 325 325 325 325 324 324 324
342 340 340 339 337 336 337 337 337 337 336 336 335 333 333 334 335 335 334 333 333 335 334 334 332 331 332 333 334 337 339 337 335 335 332 326 324 325 326 328 329 328 329 330 331 331 331 327 321 325 331 332 332 332 332 333 332 333 333 334 334 333 333 331 330 329 328 327 325 325 327 328 329 329 329 328 326 325 325 326 325 325 325 324 324
342 340 340 339 338 338 340 338 338 339 337 336 335 334 335 335 336 336 336 334 333 334 334 331 331 333 334 335 335 336 339 339 337 337 335 333 332 330 326 325 327 328 328 329 331 331 331 329 324 323 328 331 332 330 332 334 333 333 333 333 335 334 333 331 330 329 328 327 326 326 327 328 328 328 329 328 327 325 325 326 325 325 325 324 324
342 341 340 340 339 340 340 340 340 341 339 336 335 335 336 336 337 337 336 335 334 333 333 330 332 334 335 337 336 336 338 339 339 338 337 338 338 336 333 327 325 327 328 328 330 330 331 330 327 324 325 329 330 330 333 335 334 334 333 334 334 334 333 331 330 329 328 327 326 326 327 327 328 329 328 328 327 326 325 325 325 325 324 324 324
343 342 342 341 341 341 340 340 341 342 341 337 336 337 336 336 337 337 335 335 335 333 331 331 332 334 335 337 337 337 338 339 339 338 337 338 338 337 336 329 323 326 328 328 328 330 331 331 329 327 326 328 330 333 336 336 336 335 336 335 333 333 333 331 330 329 328 327 325 325 326 327 328 329 328 328 328 327 327 326 326 326 325 325 324
343 342 342 343 342 341 341 341 342 342 342 338 338 340 338 337 336 336 336 336 336 333 332 332 332 333 334 336 337 337 337 338 339 338 337 337 338 338 336 329 320 322 327 328 328 328 330 331 331 329 329 329 330 333 334 335 336 335 336 335 332 332 332 331 330 329 329 328 326 325 325 326 327 328 328 328 328 328 327 327 327 327 327 326 325
343 342 342 342 343 342 342 342 342 342 342 340 339 340 339 339 337 336 337 337 337 337 336 335 334 334 335 335 337 337 338 338 339 339 338 337 338 338 337 331 320 318 323 328 328 327 328 329 331 331 331 331 331 332 333 334 335 335 335 334 332 332 332 331 331 330 330 329 326 324 325 326 327 328 329 329 329 328 327 327 327 327 326 326 325
342 342 342 342 343 343 342 342 342 342 342 341 340 340 340 339 339 338 338 338 339 338 338 338 338 337 337 338 338 339 339 339 339 339 338 338 338 337 337 335 327 321 322 326 328 328 327 328 330 332 333 334 334 334 336 336 336 334 333 332 331 332 332 331 331 331 331 330 327 324 323 326 327 328 329 329 329 328 327 327 327 326 325 325 324
342 342 341 341 342 342 342 342 342 342 342 342 341 340 339 339 339 339 339 339 339 339 339 338 339 339 338 339 339 339 339 339 339 339 339 338 338 338 337 336 333 329 327 327 328 328 328 327 330 333 335 335 335 336 336 336 335 333 331 332 331 332 332 331 332 332 332 331 329 326 324 325 327 328 329 328 329 329 327 326 326 326 325 325 324
342 342 342 341 341 342 342 342 342 342 341 341 341 340 340 339 339 339 339 339 339 339 339 339 338 338 338 338 338 338 339 339 339 338 338 338 338 338 337 336 336 334 332 331 330 329 329 328 329 333 335 335 335 335 335 335 334 332 330 332 331 332 332 332 332 332 332 332 331 329 326 325 326 328 328 328 328 328 327 326 325 326 326 325 323
342 342 342 341 341 341 341 341 342 341 341 341 341 340 340 339 339 339 339 339 340 339 338 338 338 337 337 338 337 337 338 339 339 338 337 337 337 338 338 337 337 335 334 334 334 333 331 329 328 330 334 335 335 334 335 334 334 332 330 331 332 332 332 333 333 332 333 332 331 330 328 325 324 326 327 327 328 327 327 327 326 326 326 325 324
342 342 342 340 340 341 341 342 342 341 341 341 340 340 339 340 339 339 339 339 339 338 338 337 337 337 337 337 337 336 338 338 339 338 337 337 337 337 338 338 338 336 335 334 335 335 334 331 329 329 332 333 334 334 333 334 333 332 331 331 332 332 333 333 333 333 333 332 331 330 330 327 323 325 326 327 328 326 327 327 326 327 325 324 323
343 342 342 341 341 341 341 341 341 341 341 340 340 340 340 339 339 338 338 338 338 338 338 337 337 338 337 337 338 337 337 338 338 338 337 338 337 337 337 337 337 336 335 334 334 335 334 333 331 330 330 331 332 333 333 333 333 332 331 331 331 332 333 333 333 333 332 332 331 331 331 328 323 324 325 326 327 326 326 327 326 325 325 323 323
343 342 342 342 342 341 341 341 341 341 340 340 340 339 339 338 338 338 338 338 338 338 338 338 337 337 337 337 337 337 337 338 338 338 338 338 338 337 337 337 337 336 335 335 334 334 335 334 333 331 330 330 331 332 332 333 333 333 332 331 331 331 332 333 334 333 333 332 332 331 331 329 326 325 325 325 326 325 325 327 326 323 324 323 322
343 342 342 342 342 341 341 341 341 340 340 340 339 339 339 339 339 338 338 338 338 338 338 337 337 336 337 337 337 337 337 337 337 338 338 338 338 338 337 337 337 337 336 335 334 334 334 335 334 333 332 332 331 332 332 333 333 333 332 331 331 331 331 332 333 333 333 332 332 331 331 331 329 327 325 324 324 325 325 326 326 323 323 323 322
343 342 342 342 342 341 341 341 340 340 340 339 339 339 338 339 339 338 338 338 338 338 338 338 337 337 337 337 337 337 336 336 336 337 338 338 338 338 338 337 336 336 335 335 335 334 334 334 334 334 333 332 332 333 333 332 333 333 332 330 331 332 332 331 332 333 333 332 332 331 331 331 331 329 328 327 324 322 322 325 326 323 323 323 322
342 342 342 342 342 341 341 341 340 340 340 340 339 338 338 339 338 337 338 338 337 338 339 338 338 338 338 337 337 337 337 337 336 336 336 337 337 337 338 337 335 335 335 335 336 336 335 334 334 334 333 333 333 333 333 332 332 331 331 331 332 332 332 332 331 331 332 332 332 331 331 331 331 330 329 329 327 321 320 323 325 323 323 323 322
342 342 342 341 342 341 341 341 341 341 340 340 340 339 339 339 338 338 338 338 337 338 338 338 338 338 338 338 338 338 338 338 337 337 336 336 336 336 337 337 336 335 335 336 336 337 336 335 334 334 334 334 333 333 332 332 331 331 331 332 331 331 332 333 332 331 331 332 332 332 332 331 331 330 330 330 330 326 321 320 322 323 322 324 323
341 342 341 341 341 341 341 341 340 340 340 339 339 338 338 338 338 338 338 338 338 338 338 338 338 338 339 339 339 339 339 338 338 338 337 336 336 336 335 336 336 336 335 335 335 337 337 335 334 334 334 334 333 332 332 332 331 332 332 331 331 331 331 332 332 331 331 331 332 332 332 331 331 331 331 330 330 329 323 317 319 320 321 324 323
339 340 340 340 340 340 339 340 339 339 339 339 339 339 339 338 339 339 339 339 339 338 338 338 338 338 338 338 338 338 339 338 338 338 337 337 336 336 335 335 336 335 334 335 335 336 337 335 334 335 334 333 333 332 331 332 331 332 331 331 332 332 331 331 332 332 331 331 332 332 332 331 331 331 331 330 330 330 324 316 315 317 318 322 322
337 338 339 339 339 339 339 339 339 338 338 339 339 339 338 339 339 339 339 339 338 338 337 337 337 337 337 338 338 338 338 338 338 337 337 337 336 336 336 335 335 334 333 334 335 335 336 335 335 335 334 332 332 332 333 332 331 331 331 331 331 332 335 332 331 333 333 332 332 332 332 331 332 331 331 330 329 330 326 317 316 318 319 320 322
337 338 338 338 338 338 338 338 338 338 338 338 338 337 338 338 338 338 338 337 337 337 337 337 337 337 337 337 338 338 338 338 338 338 337 337 336 336 335 335 335 334 333 333 334 334 335 335 335 336 335 333 332 332 332 331 331 331 331 332 332 333 337 333 331 333 333 333 333 332 332 331 331 331 331 331 330 330 328 320 319 322 323 322 323
335 336 336 337 337 337 337 337 336 336 336 337 337 337 337 338 338 337 337 337 336 336 337 337 337 337 337 337 338 338 338 338 338 338 338 337 336 336 335 335 335 334 334 333 333 332 332 333 334 335 335 334 333 332 332 331 331 331 331 332 333 334 334 332 333 335 333 333 333 332 332 331 331 331 331 331 330 330 329 324 321 323 325 325 325
332 333 334 335 335 335 335 334 334 334 334 335 336 336 336 336 336 336 335 335 335 335 335 336 337 337 336 336 337 337 337 337 337 337 337 336 336 336 335 335 334 334 333 332 332 332 332 333 334 334 334 333 333 332 332 331 331 331 331 331 331 332 332 332 335 336 334 333 333 332 332 331 331 331 331 331 331 330 329 327 324 324 326 327 327
329 331 331 331 331 331 331 331 331 331 332 332 333 334 334 334 334 334 333 333 333 333 333 334 335 335 336 336 336 336 336 336 336 336 336 335 336 336 335 335 334 333 333 332 333 334 334 334 334 334 334 334 333 332 332 332 331 330 331 331 331 331 331 332 332 333 335 335 333 332 331 331 331 331 331 331 331 331 330 328 327 326 326 327 328
328 328 328 328 328 328 328 328 328 329 329 330 331 331 331 331 332 332 331 331 331 331 332 333 333 333 333 334 334 335 335 335 335 335 335 335 335 335 335 335 334 333 332 332 332 334 334 334 334 334 334 334 334 333 332 332 331 330 330 330 331 331 331 331 330 331 333 335 334 333 331 330 331 331 332 332 332 331 330 330 329 328 327 327 328
327 327 326 326 326 326 326 326 326 326 326 328 329 328 329 329 329 329 328 329 329 330 331 332 331 331 331 331 332 333 334 333 334 333 333 334 334 334 334 334 334 333 333 332 332 333 334 335 335 334 334 334 334 333 332 332 331 330 330 330 331 331 330 330 329 330 330 332 333 332 331 331 330 331 331 331 331 331 331 330 330 330 329 328 328
326 326 326 326 326 325 325 325 324 324 324 325 325 325 326 327 326 326 327 327 328 329 330 331 330 330 330 330 330 331 331 331 332 332 332 332 332 333 333 333 333 333 332 332 333 333 334 334 334 334 335 335 334 334 333 332 331 330 329 329 330 331 330 330 330 330 329 330 332 332 331 330 330 330 331 331 331 331 330 330 330 330 329 329 329
Wind_Speed
17 20 21 19 18 17 18 19 19 19 18 17 16 15 14 15 15 15 16 17 18 20 22 22 22 22 21 19 19 18 18 18 18 18 18 19 19 18 18 17 17 17 17 17 16 16 16 15 15 15 15 16 17 17 18 18 17 17 17 16 16 17 17 17 18 18 18 18 17 17 18 17 16 16 16 16 16 15 16 16 17 17 17 16 15
20 21 21 20 18 17 18 19 20 19 17 17 16 15 15 14 15 16 16 17 18 21 22 22 22 21 20 19 19 19 19 18 19 20 19 20 19 18 18 17 16 17 17 17 16 16 15 15 15 15 16 16 18 18 18 17 17 17 17 16 16 17 18 18 18 17 17 17 17 17 17 16 16 16 16 16 16 15 15 15 15 16 15 14 15
24 22 22 21 18 17 18 19 20 18 18 17 15 15 14 14 15 15 15 17 19 21 22 22 22 22 21 19 19 19 19 19 19 20 20 19 19 18 17 17 16 16 17 16 16 15 15 15 14 15 16 17 18 18 17 17 16 17 16 15 16 18 18 18 18 17 16 15 16 17 17 16 16 16 16 16 15 15 15 14 15 15 14 14 14
26 25 22 21 18 17 18 19 19 18 18 16 16 15 14 13 14 14 15 17 19 22 22 22 22 22 22 20 19 19 18 18 18 19 20 19 18 18 17 17 16 16 16 16 15 15 14 14 14 14 14 16 17 17 16 15 16 17 16 14 17 19 18 18 17 17 16 15 15 16 17 17 16 15 15 15 15 14 14 14 14 14 14 14 14
27 25 23 22 19 18 18 19 19 18 18 17 16 14 13 12 13 14 15 18 20 22 22 22 23 23 22 19 18 18 18 18 19 19 19 18 18 18 17 16 16 15 15 15 14 14 13 12 12 12 13 15 16 16 13 13 15 16 15 13 16 18 18 17 16 16 16 14 13 14 15 16 16 15 14 14 15 14 14 14 14 14 14 13 13
28 24 23 22 21 19 18 19 18 19 18 18 16 14 12 11 13 14 15 18 20 22 22 23 23 23 21 19 18 17 18 18 19 19 18 18 18 17 16 16 15 15 14 14 12 11 10 10 11 12 13 14 14 14 12 12 14 14 14 13 13 14 15 14 14 15 14 14 13 15 16 16 16 15 14 14 14 14 14 14 13 14 14 13 13
27 24 24 22 22 20 18 19 18 19 19 18 16 14 12 11 13 14 15 17 20 22 22 22 22 22 20 18 17 17 18 18 19 18 18 17 17 17 16 15 14 13 13 12 11 10 8 8 10 11 11 12 13 13 11 11 12 12 12 12 11 9 9 7 6 7 10 12 13 16 17 15 15 14 13 13 14 13 14 14 14 15 15 14 14
25 24 23 23 23 20 18 19 19 19 18 17 16 14 12 11 12 13 14 17 20 21 20 19 19 19 19 18 17 16 17 18 18 18 17 17 16 16 15 13 12 12 11 11 10 10 9 8 8 9 10 10 12 12 10 10 9 9 9 9 8 5 4 1 2 4 7 11 13 16 17 15 15 14 12 12 13 13 13 14 14 15 15 14 14
25 23 23 23 22 20 19 19 20 19 18 17 15 13 11 11 12 13 15 17 19 21 18 16 17 17 17 17 16 16 16 17 17 16 16 16 15 14 13 11 10 10 10 10 10 9 8 6 6 7 8 9 12 13 11 10 9 8 7 7 6 6 6 5 6 11 12 12 14 15 15 14 14 13 13 13 13 13 13 14 14 15 14 14 14
25 23 24 23 22 20 19 19 20 19 19 17 15 13 11 10 11 13 15 17 18 19 18 16 16 16 16 16 15 15 14 15 15 15 15 14 14 12 11 9 9 8 9 9 9 8 7 6 7 7 8 9 12 14 13 11 9 8 7 8 8 10 12 12 13 15 14 13 14 14 13 12 13 14 14 14 13 12 13 14 15 16 15 14 14
24 24 24 22 21 20 19 20 20 19 18 17 15 12 11 10 10 13 15 16 16 16 16 15 15 15 15 15 15 15 14 14 14 14 13 13 12 11 9 8 8 8 8 9 8 7 6 7 8 9 11 13 15 14 13 12 11 10 9 10 12 15 15 13 14 14 13 13 14 14 13 12 13 14 14 14 13 12 14 14 14 17 16 14 14
24 24 24 22 20 20 20 20 19 19 18 17 14 12 11 9 10 13 15 16 15 14 15 15 15 15 15 14 14 14 12 12 13 12 12 11 11 10 9 8 7 7 8 8 7 7 7 8 9 12 16 17 16 15 13 12 11 10 10 11 14 17 14 12 12 13 13 13 14 14 13 13 14 14 14 14 12 12 14 14 13 15 14 14 16
25 24 23 21 20 20 20 19 19 19 18 16 13 12 10 9 10 12 14 16 15 14 16 16 16 15 14 14 13 13 11 11 12 11 10 10 9 8 8 7 7 6 7 7 7 7 9 10 11 16 19 19 17 15 13 11 10 10 11 13 16 16 13 11 11 12 12 13 14 14 14 15 15 14 13 13 13 12 12 13 13 13 13 13 15
27 26 24 22 21 20 20 20 19 19 17 15 13 11 10 10 11 12 13 14 14 16 17 16 16 15 14 14 13 12 11 9 10 10 9 9 7 6 6 6 6 6 6 6 7 8 9 11 13 18 20 19 17 14 12 11 9 11 12 14 18 17 13 12 12 11 12 14 16 16 16 16 14 13 13 13 13 13 12 12 11 12 12 11 13
26 26 25 23 22 21 20 19 18 18 16 14 13 11 10 11 12 13 13 14 14 16 16 15 15 14 14 13 13 12 11 9 9 8 8 7 6 5 5 5 5 5 6 6 7 9 9 10 14 19 20 19 16 14 12 10 10 12 11 13 18 17 13 12 11 10 13 17 17 16 16 15 14 13 13 13 12 12 11 10 9 9 10 10 10
24 25 26 24 22 22 20 18 17 16 15 13 12 11 11 12 14 13 13 14 14 15 14 14 14 14 14 13 13 13 11 10 8 7 6 5 4 5 6 5 5 5 6 5 6 8 8 9 14 18 19 17 15 13 10 10 12 14 12 13 16 15 12 10 9 11 14 17 17 16 16 15 14 13 12 11 11 10 10 9 9 8 8 8 8
23 25 26 24 22 22 20 18 16 15 15 13 12 12 13 14 14 13 13 13 13 13 13 13 13 13 13 13 13 12 11 9 8 6 5 3 4 6 7 5 5 5 5 5 6 7 8 8 12 17 17 16 14 12 10 11 13 13 13 14 15 13 11 8 10 12 14 16 16 16 15 13 12 12 12 11 10 9 9 9 9 8 8 8 8
24 25 25 23 22 21 20 18 16 15 14 13 12 13 14 15 14 13 12 12 13 13 13 13 13 13 13 12 12 11 10 8 6 5 4 3 4 6 6 6 5 5 4 5 6 7 7 7 11 16 16 15 13 11 10 11 12 12 11 15 15 13 10 8 10 11 12 14 15 15 13 12 11 11 11 10 10 9 8 8 7 7 7 8 9
24 24 23 22 21 19 18 17 16 15 15 14 13 12 14 15 14 13 12 12 12 12 12 13 13 13 13 12 10 8 8 7 6 5 3 2 3 6 6 6 5 5 4 4 5 6 6 7 10 15 16 14 12 11 10 10 12 12 10 14 14 12 10 8 9 9 10 12 12 11 10 10 10 10 9 9 9 9 8 8 7 7 7 7 8
22 22 22 20 19 18 17 16 15 15 15 14 13 12 13 14 14 12 12 12 12 12 12 12 11 11 11 11 9 7 7 6 6 5 5 4 4 6 6 6 6 5 4 4 5 5 6 7 9 13 15 14 12 11 10 10 13 13 10 13 14 11 9 7 7 8 9 10 10 10 10 9 9 10 9 9 9 8 7 8 8 8 8 8 9
21 21 19 18 17 17 16 15 14 14 14 13 13 12 12 13 13 12 11 11 12 12 11 11 10 10 10 10 9 8 8 7 7 7 7 7 7 7 7 7 6 5 4 4 5 5 6 7 9 12 15 14 12 10 9 10 12 11 9 12 13 11 8 6 6 7 8 9 10 10 10 9 9 10 9 9 8 8 7 8 9 9 9 9 10
21 20 18 16 16 16 16 15 14 14 14 13 14 14 12 12 13 13 12 12 12 12 11 11 9 9 9 8 9 9 8 7 7 8 9 9 10 10 9 8 7 6 4 3 4 4 6 7 9 11 15 15 12 10 9 10 11 9 6 8 11 10 7 5 5 6 7 7 8 9 10 10 9 8 9 9 8 8 8 9 9 9 9 10 10
20 20 19 16 15 16 16 15 15 15 14 14 15 15 13 13 14 14 13 13 13 13 12 10 9 9 9 9 9 9 9 9 8 7 8 10 11 11 11 9 8 7 6 4 4 4 5 7 9 12 15 16 13 11 10 10 9 9 6 5 9 10 8 6 6 6 6 6 6 8 9 11 10 9 8 8 8 8 8 9 9 9 9 10 10
20 21 20 17 15 16 16 15 15 15 15 15 15 15 14 13 14 14 14 14 14 13 11 10 10 10 10 10 10 9 9 9 10 8 7 9 11 13 13 11 10 9 8 6 5 4 5 7 10 15 17 16 14 12 10 9 9 9 5 4 8 10 8 7 7 6 5 5 6 7 9 10 10 9 8 7 7 7 9 10 9 9 9 10 11
21 22 21 18 16 16 16 15 15 15 14 15 16 15 14 14 14 14 14 14 14 14 13 12 13 12 11 11 10 9 7 7 9 9 8 8 9 11 12 13 12 11 10 9 7 6 6 7 11 16 18 16 15 12 10 9 9 7 2 3 8 9 9 8 7 6 5 5 5 7 9 11 10 8 7 7 8 8 9 9 9 9 10 10 10
23 23 22 20 18 16 16 16 15 14 13 14 16 15 14 14 15 14 14 14 14 15 15 14 13 13 12 11 10 10 9 9 10 10 9 9 7 7 8 11 14 14 12 11 9 8 7 8 10 15 17 16 15 11 7 7 7 6 6 5 8 10 11 9 8 7 5 5 6 8 9 11 11 9 8 7 8 9 9 7 8 9 9 9 9
23 23 22 21 19 18 17 16 15 14 14 15 16 15 13 14 15 14 15 15 15 15 16 14 13 13 13 12 12 11 11 11 12 12 11 11 10 8 6 8 12 15 15 13 11 10 9 10 10 13 16 15 14 10 8 8 7 7 9 9 9 11 12 11 9 8 6 6 6 8 8 8 10 9 8 7 8 9 9 8 8 9 9 9 9
22 22 21 20 19 20 20 18 16 15 15 17 17 15 13 14 14 14 15 15 15 15 15 14 14 13 13 13 13 12 11 12 14 14 13 12 12 10 8 7 10 15 16 15 13 12 11 11 12 13 14 14 14 12 11 10 10 10 14 14 12 12 13 12 10 8 6 6 6 7 7 9 10 9 8 7 7 8 8 8 8 8 8 8 8
21 21 21 20 21 22 22 19 18 17 17 19 18 15 13 13 14 14 14 15 15 14 14 14 15 14 14 14 14 14 13 13 15 16 16 14 13 11 9 7 10 14 17 17 15 14 13 12 13 13 14 14 15 15 14 14 14 14 17 16 15 14 14 14 10 8 7 5 5 6 7 10 12 10 9 9 8 8 8 7 7 7 6 7 8
21 21 21 21 21 22 21 20 19 18 18 19 18 16 14 12 13 14 13 14 14 13 14 14 15 16 16 15 15 15 15 14 15 16 17 16 14 13 10 8 10 13 16 18 17 15 14 14 14 14 14 15 15 16 16 17 18 17 17 18 16 15 15 14 10 8 7 6 4 5 7 9 11 10 10 10 9 8 8 8 7 7 6 7 8
20 22 21 20 20 21 20 20 19 18 18 18 17 16 15 13 12 13 14 13 13 14 14 15 16 17 17 16 16 16 15 15 15 16 18 18 16 15 13 11 11 13 15 18 18 16 15 15 15 14 13 14 15 16 17 18 19 17 18 20 16 15 16 14 12 9 7 7 4 5 7 8 10 11 11 9 8 8 9 7 7 8 7 7 7
20 21 20 19 19 20 20 20 19 18 17 17 16 16 15 14 13 13 14 13 13 14 14 15 16 15 15 15 15 15 16 16 16 16 17 18 18 17 17 15 13 13 15 17 18 18 18 17 17 15 14 15 16 18 19 20 18 14 15 20 17 17 17 15 13 11 8 7 6 5 7 9 10 12 12 10 8 9 9 7 7 8 8 7 8
19 20 19 19 18 19 20 20 19 18 17 16 15 14 14 14 14 14 13 12 12 12 13 14 14 12 12 12 13 14 16 17 17 15 15 16 18 19 19 18 17 16 15 16 17 18 19 20 19 18 17 17 18 20 21 21 18 14 12 16 21 19 18 17 14 12 10 8 7 7 7 9 11 13 12 11 10 10 10 8 8 9 8 8 9
20 20 19 19 19 19 21 20 19 18 16 15 14 13 13 13 13 13 13 12 11 11 11 11 11 10 10 11 12 13 15 17 17 16 15 16 17 18 20 19 18 18 18 18 18 19 19 20 20 20 20 20 20 21 22 20 18 15 13 16 23 22 18 17 15 13 11 10 9 8 8 9 12 13 12 13 11 11 11 9 9 10 8 7 9
20 21 20 19 19 20 20 19 18 17 16 15 14 13 13 12 12 12 12 12 11 9 9 8 8 8 9 10 9 11 13 15 15 16 15 15 16 17 18 19 18 19 20 20 20 21 20 20 20 21 22 22 21 21 21 18 17 18 15 16 21 23 20 18 15 14 12 12 11 9 9 10 12 13 13 14 13 13 12 9 9 10 8 8 9
18 20 20 19 18 18 18 18 17 16 16 15 14 12 12 12 12 11 10 10 10 9 8 7 7 7 8 8 7 8 10 12 14 15 16 15 15 16 15 16 16 18 20 21 21 22 22 21 21 23 23 22 21 20 20 18 17 18 16 16 17 18 21 20 16 15 14 13 12 11 11 11 12 12 13 14 15 14 13 11 11 11 10 10 10
16 19 20 18 17 16 16 15 15 15 15 14 13 12 11 10 10 10 10 10 10 9 7 7 7 7 8 8 8 8 9 11 13 16 16 16 16 16 15 15 16 18 20 21 22 23 23 23 23 24 24 24 22 21 20 18 18 18 14 14 17 17 18 20 18 16 16 16 14 13 12 12 12 12 13 13 14 14 14 13 13 13 12 11 11
16 17 17 16 15 15 15 14 14 13 12 12 11 11 10 9 8 8 9 10 10 9 8 7 7 8 9 9 9 9 10 11 14 16 17 17 17 17 17 16 17 19 21 21 22 23 24 24 24 23 22 22 21 20 21 19 19 20 15 13 18 19 15 14 18 19 17 17 16 15 13 13 13 13 13 13 14 14 14 15 13 12 13 12 12
14 15 14 14 14 13 13 14 13 12 11 11 10 10 10 9 8 7 8 10 10 9 8 8 7 7 8 8 9 11 12 12 13 16 17 18 18 18 19 18 18 19 20 20 21 23 24 24 24 23 22 21 19 17 17 17 19 20 17 13 16 20 18 13 16 19 18 17 16 16 14 14 14 14 14 12 13 14 14 16 14 12 13 13 13
13 13 13 13 13 13 14 13 12 11 10 9 9 9 9 8 8 8 9 10 10 9 9 9 8 8 9 9 11 11 12 13 13 15 17 18 20 20 21 20 19 18 20 22 22 22 23 23 23 24 22 20 18 16 14 14 15 17 15 12 12 17 20 17 16 16 17 17 17 16 16 16 15 15 14 13 12 13 14 16 15 13 14 13 13
13 12 12 12 12 12 13 12 11 9 8 8 7 8 8 8 9 9 9 8 8 8 9 9 9 9 9 10 11 12 12 13 13 15 17 19 21 21 22 23 21 21 23 24 23 22 22 22 22 22 21 20 18 17 16 13 10 10 9 8 10 14 16 14 14 15 16 18 17 16 16 17 17 16 15 14 13 13 14 16 15 14 16 15 13
13 12 10 10 9 8 9 9 9 8 7 7 6 7 7 8 8 8 8 7 7 6 7 7 8 8 9 10 12 12 13 14 14 15 16 18 20 21 22 23 23 23 24 24 24 22 21 21 21 21 20 19 19 18 18 14 9 10 9 5 6 11 13 11 12 14 15 18 18 17 18 18 18 17 16 15 15 14 14 15 15 15 18 18 15
13 12 10 9 8 7 6 5 5 5 6 6 6 6 6 7 8 8 8 8 7 7 7 7 8 9 11 12 13 13 14 14 15 16 17 18 19 20 21 22 23 23 23 24 24 23 22 21 22 22 20 18 18 17 18 17 14 12 8 4 3 5 8 11 14 14 15 18 19 18 19 19 18 18 18 18 17 16 14 15 16 16 18 19 17
13 12 11 10 10 9 7 5 4 2 2 3 3 3 5 6 7 9 9 9 9 8 8 8 9 11 12 13 14 14 14 14 15 16 17 18 18 19 20 22 22 22 23 24 24 24 24 23 22 22 21 19 18 18 19 20 20 15 7 2 2 3 3 8 13 15 16 18 19 20 20 20 20 20 20 20 18 17 16 16 17 17 18 20 18
14 12 12 11 10 9 8 6 5 4 3 1 2 2 4 4 5 7 7 8 8 8 9 10 10 10 11 12 13 14 14 15 16 16 17 17 18 19 20 22 22 22 23 23 24 25 25 24 24 24 23 22 21 20 19 19 21 22 15 5 2 2 3 5 8 11 16 20 19 20 21 21 21 21 22 22 20 18 17 18 19 19 19 19 19
16 15 14 13 12 10 9 8 8 7 6 4 2 2 2 4 5 6 7 8 9 11 12 12 11 10 10 10 10 11 12 14 15 16 17 17 17 18 19 21 22 21 22 23 24 25 23 23 24 26 26 25 24 20 19 20 21 24 25 18 10 5 4 7 5 3 11 18 18 19 21 23 23 23 23 23 22 20 19 20 21 21 20 20 19
17 17 16 15 15 14 12 11 11 10 10 8 5 5 5 5 6 8 10 11 12 14 14 12 11 10 11 11 10 10 11 14 14 14 16 16 17 18 18 20 21 20 20 22 23 24 23 22 23 24 26 26 25 21 21 22 21 22 26 27 20 11 8 9 5 3 4 9 14 18 21 22 24 25 25 25 23 22 21 22 22 22 22 21 20
16 17 17 17 16 15 14 12 11 10 10 9 8 8 9 9 10 11 13 14 15 15 14 13 13 12 11 12 11 11 11 13 13 13 14 15 16 16 17 19 20 19 19 21 22 22 21 21 21 22 24 24 24 24 23 21 20 21 25 28 26 19 13 11 9 8 4 2 7 12 17 21 24 27 27 26 25 23 23 23 23 24 24 22 21
17 17 17 16 15 14 13 12 12 11 10 9 8 9 9 10 11 11 13 14 14 13 13 14 15 14 13 14 13 12 12 12 12 12 12 13 13 14 15 17 19 18 18 19 20 21 21 21 22 21 22 23 24 24 22 21 22 23 22 24 25 22 18 14 12 10 6 4 4 5 10 15 18 25 28 26 25 25 24 24 24 24 25 25 23
16 16 15 15 15 14 14 14 15 13 11 9 8 9 10 11 12 13 14 14 14 14 14 14 16 17 16 15 14 13 14 14 12 12 12 12 12 12 13 15 16 17 17 17 17 19 21 22 22 20 20 22 23 23 22 23 24 24 21 21 22 20 17 12 12 12 7 5 5 5 10 12 11 18 26 27 27 26 26 25 24 25 26 26 25
14 14 15 14 14 14 14 16 15 13 12 11 10 10 11 12 13 14 14 15 15 14 15 16 17 18 16 16 15 14 14 14 13 13 13 13 12 12 12 14 15 16 17 16 15 17 19 20 19 17 17 20 21 22 24 25 25 25 23 22 22 22 19 15 17 18 11 6 5 4 10 16 14 16 23 27 28 27 27 26 26 26 26 27 27
Wind_Direction
148 147 147 155 158 159 156 155 152 150 146 142 139 134 127 114 106 102 101 98 103 113 117 116 113 110 107 104 100 97 95 93 92 93 94 95 96 97 97 97 98 97 98 96 94 94 94 94 93 94 94 98 98 97 97 97 97 95 94 94 95 96 96 94 92 91 87 85 83 80 78 77 76 75 77 79 80 80 81 82 84 83 81 81 82
153 149 151 157 162 162 157 154 152 150 146 145 141 136 127 115 109 106 105 103 109 117 119 118 115 112 109 106 103 100 98 97 96 96 96 97 98 99 100 99 98 97 97 95 94 93 93 93 94 95 96 101 103 103 103 102 99 96 94 94 97 96 94 93 91 90 89 88 85 82 80 77 77 76 74 75 75 76 78 79 80 80 80 81 81
151 150 154 158 163 162 155 151 151 150 147 147 143 138 128 117 112 110 110 109 116 120 121 120 117 113 109 107 104 103 101 100 100 100 100 100 101 101 101 100 98 97 97 96 95 95 95 95 95 97 98 102 104 104 103 102 97 95 95 96 98 95 92 90 86 84 83 86 88 86 81 76 75 75 74 75 75 76 78 79 82 82 83 84 82
151 151 155 157 160 159 153 150 150 150 150 149 146 140 131 121 116 116 114 113 120 122 121 120 118 114 111 107 104 105 104 104 104 104 104 102 103 102 101 101 100 98 97 96 95 96 97 98 101 102 103 106 105 103 102 101 98 99 99 100 102 98 93 88 83 80 78 78 84 87 85 80 75 75 74 73 73 77 79 80 82 82 82 82 82
150 149 153 154 154 154 151 148 150 151 152 151 148 144 137 128 121 121 118 117 121 123 122 121 119 116 112 108 107 109 109 109 108 107 105 105 105 103 103 102 101 99 97 95 95 95 97 101 107 110 110 111 107 104 102 99 103 105 104 105 106 104 100 96 89 84 82 79 78 84 89 86 82 79 77 73 71 75 79 81 83 82 81 81 83
148 146 151 151 150 150 149 148 150 152 154 154 152 151 144 133 127 125 123 121 121 123 122 121 120 117 114 112 113 113 113 112 111 109 107 107 106 106 105 103 101 100 98 97 96 96 100 108 112 113 114 116 112 109 107 105 108 109 110 110 109 109 107 105 93 83 86 86 82 88 91 90 89 83 80 79 73 72 74 78 83 84 82 83 85
144 145 149 149 148 149 149 149 151 155 158 158 156 157 149 135 130 127 127 124 122 122 120 120 119 118 115 115 116 114 115 113 112 111 111 110 108 106 103 102 101 99 100 97 94 91 92 101 109 112 115 122 124 122 120 117 115 115 116 115 116 115 113 118 102 82 86 88 87 95 96 93 94 89 84 81 75 74 75 77 80 83 84 83 82
141 145 148 148 148 148 148 149 153 158 161 161 160 158 149 135 130 130 130 127 125 122 118 117 118 118 117 116 116 114 115 114 114 114 114 113 109 107 105 106 106 107 108 103 98 94 89 89 97 103 109 123 135 140 136 130 126 126 120 111 107 94 98 168 214 165 116 96 97 101 101 97 95 91 83 79 80 81 83 85 84 84 85 85 83
140 143 146 146 147 148 148 152 155 160 163 162 161 156 147 133 131 133 132 130 127 122 117 116 117 118 119 118 116 115 115 116 116 116 117 114 110 110 110 110 111 114 111 106 103 101 101 100 95 95 102 118 136 146 146 143 137 131 119 96 74 70 97 104 120 139 126 107 106 104 101 98 92 87 83 84 87 89 95 96 92 90 89 88 86
139 141 143 144 146 150 149 153 157 161 161 160 159 154 147 133 131 136 134 132 129 126 121 118 119 120 122 120 118 117 116 117 117 119 119 114 113 112 109 106 107 106 100 97 99 102 107 102 96 100 109 118 131 142 146 146 137 125 105 76 74 100 116 112 114 124 120 111 109 104 100 95 88 87 87 89 89 91 101 101 95 94 91 91 91
137 140 141 144 148 151 149 153 158 158 158 157 157 152 145 134 131 138 139 135 130 129 125 122 124 126 126 122 122 121 119 119 119 120 119 114 110 103 99 100 102 102 102 101 103 106 100 94 99 111 117 123 132 140 143 140 128 111 86 71 97 119 126 123 119 119 116 115 113 107 101 91 86 91 95 96 93 90 95 95 95 94 91 91 93
138 142 141 145 149 150 151 155 156 155 156 156 155 151 146 135 134 141 144 142 137 133 130 129 133 131 126 124 124 125 122 120 121 121 118 114 104 94 92 94 95 96 101 97 97 93 87 97 110 121 125 130 137 141 139 129 113 94 76 86 115 129 134 130 122 118 117 117 115 109 103 95 93 98 101 100 99 95 93 93 95 95 95 93 91
140 143 144 147 150 151 153 155 157 156 158 159 158 155 149 139 140 145 148 151 147 143 142 139 139 134 129 127 127 129 126 121 124 125 121 114 102 92 91 93 92 91 91 84 78 75 87 106 120 129 133 137 140 140 132 117 101 84 80 99 122 133 137 131 123 118 114 118 116 110 104 100 100 101 100 98 103 107 100 100 101 101 104 99 93
142 147 149 151 150 153 156 157 160 160 163 162 160 158 152 146 146 148 149 154 152 151 150 144 141 138 134 132 132 132 129 128 129 131 129 120 107 96 94 94 90 89 90 80 68 68 88 109 126 136 138 140 141 136 125 112 94 80 84 108 128 136 137 129 123 117 112 115 113 112 109 106 109 110 107 102 105 110 106 107 104 101 108 105 97
145 151 152 152 151 154 158 160 163 164 166 163 160 160 154 150 149 146 143 147 151 154 153 146 144 143 141 138 138 139 138 140 139 141 141 127 115 110 108 102 90 90 89 77 62 65 83 106 131 141 141 142 141 135 123 108 87 75 84 119 137 141 140 130 120 118 117 117 116 117 118 115 115 113 109 106 106 107 108 110 104 100 108 110 101
148 153 152 150 152 155 157 161 164 164 165 163 161 158 152 150 147 143 139 139 145 152 154 151 150 150 150 149 150 150 148 149 150 152 150 134 127 131 128 114 97 95 88 80 64 63 75 102 136 146 144 145 140 134 121 101 86 77 88 128 144 145 142 130 118 121 121 120 121 120 121 121 114 109 111 112 113 109 107 107 105 105 104 107 107
150 152 150 149 152 154 157 160 161 161 162 160 156 150 147 146 143 141 139 137 138 145 153 157 159 158 159 162 164 164 160 156 158 161 158 143 139 140 135 125 110 99 93 91 75 66 73 99 138 151 150 149 141 132 119 102 89 82 97 130 145 145 140 124 114 120 122 122 124 122 121 123 119 115 116 117 117 112 109 107 106 104 92 95 105
148 150 148 148 152 154 158 158 158 157 156 155 148 143 144 144 141 142 143 142 141 141 148 157 164 166 168 170 172 173 170 167 169 174 168 159 151 144 137 136 125 107 104 102 88 74 76 100 137 155 157 153 144 133 122 107 90 84 106 133 144 147 139 122 114 117 124 127 126 124 122 124 127 126 124 122 118 114 115 113 110 106 96 94 104
145 147 147 150 154 155 157 156 156 153 152 152 143 138 144 146 146 150 149 148 148 145 146 152 163 171 175 176 175 175 172 175 183 190 193 200 174 157 151 152 141 123 118 112 106 89 85 106 137 158 163 158 150 138 126 109 90 86 111 141 149 150 142 127 116 118 127 133 130 125 120 120 126 126 125 125 120 119 122 120 115 108 108 102 103
143 147 148 153 155 155 155 153 153 151 151 150 140 137 146 150 153 157 152 153 155 151 148 149 159 168 176 178 179 177 173 181 193 203 206 205 193 180 175 168 159 141 133 127 121 107 101 111 134 159 167 162 155 145 132 112 99 93 114 148 156 155 146 131 119 122 130 137 136 128 124 123 125 126 124 125 124 125 128 126 122 114 112 109 105
143 146 147 153 155 154 152 151 152 151 152 148 140 139 150 156 158 158 153 157 159 155 153 154 160 165 171 175 174 173 174 188 195 198 195 192 194 192 190 183 174 157 144 140 132 123 116 117 133 156 168 167 160 152 137 121 110 97 116 151 160 158 148 136 126 126 129 138 141 134 133 130 130 133 132 132 129 128 127 125 125 121 117 111 109
144 145 149 154 153 155 154 152 152 153 153 149 145 145 154 161 162 161 157 164 164 160 161 161 166 168 172 173 170 171 172 183 192 196 191 186 191 194 198 192 181 173 163 154 146 140 129 126 136 152 165 168 161 151 140 132 119 94 110 158 166 167 162 154 138 124 124 137 147 145 142 138 136 137 137 136 133 133 127 122 124 123 120 117 115
146 150 156 157 152 155 157 154 154 157 157 153 151 152 158 164 166 165 164 172 171 169 168 166 172 175 179 180 181 181 177 175 175 190 196 189 190 193 199 199 191 181 176 175 167 161 145 136 141 150 157 159 155 149 146 148 132 104 107 163 176 177 174 165 148 131 125 131 145 152 150 148 145 141 139 138 139 141 134 129 131 128 128 127 122
152 158 159 156 153 154 155 154 156 159 160 157 156 157 162 166 167 168 172 177 176 175 174 174 182 188 188 186 188 189 189 180 167 174 195 199 195 194 196 200 199 190 183 186 185 183 166 148 150 153 153 154 153 149 148 152 144 127 119 166 184 185 181 172 157 139 125 126 140 149 150 147 143 141 143 140 135 137 136 135 135 132 132 132 130
152 159 158 156 156 154 154 155 156 157 157 157 157 159 162 165 167 170 176 180 181 181 182 185 188 195 195 194 196 199 208 205 188 181 184 194 201 200 198 199 202 198 190 189 190 194 188 164 158 160 159 160 160 155 151 151 151 157 190 200 190 195 191 181 165 149 131 130 139 142 145 143 142 143 146 141 130 132 137 138 137 133 130 131 134
147 154 156 159 160 158 159 158 156 154 153 153 154 157 161 164 166 169 176 182 186 187 188 190 190 196 201 207 212 213 220 229 221 206 194 188 198 209 205 204 205 204 197 194 194 196 200 187 173 171 171 174 175 174 175 181 178 194 254 253 209 208 202 191 172 159 144 137 144 147 152 152 152 150 149 148 138 137 141 140 140 137 134 133 136
143 148 154 160 164 167 167 161 158 155 151 151 153 158 163 167 168 170 178 183 188 192 193 194 197 205 211 218 222 220 225 237 236 226 218 205 201 209 212 209 208 208 204 199 199 198 204 202 191 185 186 192 195 202 216 226 226 229 269 271 225 211 206 198 179 166 150 143 151 159 166 155 150 151 152 157 145 140 143 142 143 142 138 134 135
144 146 153 159 165 168 167 162 161 160 154 154 157 161 170 175 176 178 183 185 191 195 197 199 205 213 219 225 230 229 229 239 239 233 232 223 211 208 206 209 210 213 211 206 204 202 206 210 208 204 206 213 216 223 230 245 257 256 275 269 224 208 206 198 183 172 153 148 158 169 172 148 148 163 163 162 153 147 148 148 147 145 140 136 137
150 152 158 160 161 163 164 163 166 164 158 158 162 169 179 185 186 188 190 192 195 199 205 209 213 219 224 230 235 237 236 238 239 235 234 234 227 217 208 205 205 212 216 214 211 207 208 212 216 220 224 231 236 240 244 259 272 274 275 255 217 205 202 195 186 177 158 149 160 172 172 153 159 175 169 162 161 158 154 152 149 146 144 141 141
157 160 166 164 160 161 163 165 167 165 162 164 169 178 188 193 194 197 201 203 205 210 217 221 223 227 229 233 238 243 242 239 239 237 234 235 237 234 225 215 204 207 214 216 217 216 215 217 220 224 230 239 246 252 261 272 283 284 261 232 210 203 197 194 190 181 167 155 157 168 169 160 162 167 166 167 168 158 151 155 156 151 153 150 147
161 166 171 168 162 164 166 166 169 170 169 171 176 187 198 203 206 208 212 218 222 221 226 231 235 237 237 239 244 247 247 244 241 240 236 233 238 243 241 232 215 206 210 214 218 221 222 226 227 229 234 244 252 262 273 278 290 284 236 214 209 201 194 192 189 185 179 169 161 168 173 170 162 159 171 182 176 162 153 159 164 160 168 165 156
166 173 175 171 167 169 172 171 174 177 179 179 181 194 206 215 221 220 222 229 231 229 232 240 241 243 244 246 249 252 251 249 244 239 234 233 239 246 246 245 233 216 212 215 221 225 226 229 233 237 241 249 256 264 271 272 285 288 237 215 209 201 196 192 188 189 191 186 177 174 179 182 173 170 184 193 180 170 164 165 172 173 174 168 158
172 176 177 175 173 173 176 178 181 183 186 186 188 199 213 222 230 233 237 238 236 237 241 247 248 247 250 250 252 254 251 248 246 241 236 238 243 245 244 249 246 234 225 221 224 229 230 229 231 237 241 246 250 256 261 264 269 282 276 236 211 202 199 192 191 193 195 197 190 183 183 189 188 185 190 188 173 174 180 175 172 174 170 165 161
172 174 175 176 176 177 179 181 184 188 191 191 193 203 214 222 231 239 244 246 246 245 246 251 252 249 251 251 255 255 246 243 246 245 243 244 245 243 243 248 249 244 238 232 228 231 232 230 231 235 240 244 247 252 256 263 260 250 275 256 216 202 198 194 194 196 200 198 192 189 188 194 196 195 191 182 174 182 195 191 171 174 174 170 168
168 169 170 170 174 179 181 181 182 189 194 194 198 208 217 221 229 240 245 248 247 243 242 244 245 245 246 249 257 253 242 240 244 246 247 248 246 244 245 248 250 246 240 237 235 235 237 236 236 238 243 248 251 253 250 258 255 236 255 260 221 202 196 195 196 197 202 200 194 193 192 198 199 197 192 184 185 191 200 198 175 178 181 174 172
165 165 163 165 172 177 179 179 181 188 192 195 202 210 218 222 227 236 238 237 236 239 244 244 249 250 248 251 261 259 246 246 248 247 249 252 252 250 250 251 253 248 241 242 243 242 243 243 244 243 247 255 257 255 249 249 251 242 251 253 233 215 198 193 198 200 200 198 199 198 196 200 199 199 197 191 194 196 199 197 180 181 184 176 173
167 163 161 163 167 171 175 178 181 186 189 193 201 206 211 218 224 229 233 232 234 241 244 245 252 253 253 258 264 269 263 259 257 254 254 255 254 255 257 257 254 250 248 250 251 251 250 248 248 246 248 255 255 253 248 243 243 243 242 234 230 228 211 199 197 199 200 198 199 200 201 203 200 200 201 199 202 200 199 200 191 188 191 187 177
166 162 160 160 161 165 172 176 179 181 185 191 197 202 206 213 221 227 233 236 238 242 244 245 250 252 258 265 270 274 273 272 266 260 258 257 257 255 256 254 251 253 253 253 251 250 250 248 246 246 245 247 248 250 248 243 241 238 233 233 232 228 228 218 202 197 200 202 200 200 205 207 205 202 201 204 207 205 202 203 201 192 195 196 179
158 156 153 153 155 156 161 167 173 177 181 187 193 203 209 213 220 228 237 244 245 246 250 253 256 261 268 276 280 279 277 276 271 263 259 258 259 258 256 253 250 253 253 250 246 244 244 243 243 242 241 241 245 250 248 244 245 240 233 241 244 230 226 225 208 200 203 206 203 201 203 208 210 205 202 206 209 211 208 206 205 193 195 199 180
150 152 152 153 150 147 150 157 165 171 178 186 196 210 217 222 228 233 242 248 247 246 252 260 267 272 280 285 286 287 284 280 275 267 263 262 263 263 263 258 254 253 250 247 247 247 244 240 240 239 238 238 241 244 240 238 244 244 236 235 242 230 220 217 212 206 204 205 204 204 205 207 211 209 208 211 210 211 209 207 207 197 195 200 189
148 155 157 153 149 147 149 155 164 173 185 198 213 227 232 240 245 248 255 255 250 249 253 260 270 279 285 289 289 292 291 286 282 274 268 267 266 266 265 261 257 254 252 251 252 255 250 243 240 238 237 235 236 239 233 232 237 230 226 221 219 216 211 213 216 209 206 206 206 208 209 208 212 213 214 218 215 212 210 207 207 201 196 200 200
142 152 155 149 147 150 153 159 168 176 186 197 213 228 239 250 258 269 278 274 267 268 269 270 276 283 285 286 288 288 287 287 286 282 276 272 269 267 265 262 259 254 252 254 254 254 250 243 239 236 237 235 234 236 228 223 214 198 192 181 195 208 209 217 220 209 204 208 209 209 210 211 214 215 217 220 217 213 211 208 206 203 199 200 203
131 140 142 134 130 134 145 154 163 175 188 202 216 232 241 249 262 275 281 282 284 288 289 289 285 283 282 280 281 279 278 281 284 285 283 280 275 270 267 264 260 256 254 252 251 251 249 245 240 237 237 235 236 235 227 218 204 188 183 184 189 201 216 226 225 212 201 205 209 209 210 213 215 216 217 220 218 214 209 206 204 200 200 202 203
120 125 123 113 107 106 105 111 115 117 159 207 230 245 244 247 261 270 274 279 283 285 290 294 291 288 286 283 282 279 275 277 283 288 289 287 284 278 273 267 262 259 255 251 249 250 249 247 244 240 236 234 237 235 230 221 208 193 174 176 184 163 218 219 214 213 203 204 210 209 210 213 214 215 217 219 219 215 209 204 201 198 199 201 202
97 101 104 102 99 96 91 89 84 65 51 359 294 269 262 277 289 288 291 297 302 313 319 322 320 311 303 299 297 295 290 289 290 291 290 289 289 285 278 273 270 264 257 254 254 251 250 251 249 246 240 236 235 234 230 224 217 211 201 184 158 182 230 191 189 209 205 204 210 210 212 214 213 214 216 218 219 217 211 204 202 200 199 201 201
77 82 88 92 93 95 95 90 82 71 64 52 359 302 310 334 339 341 345 338 342 356 357 352 346 336 327 322 316 310 307 303 300 296 292 290 291 290 283 275 269 264 261 260 259 256 254 254 251 247 246 241 235 231 228 225 223 220 216 214 215 217 196 168 163 197 204 207 209 208 212 215 214 214 215 216 217 217 213 207 206 205 203 203 203
75 81 83 85 86 88 90 88 84 77 72 70 67 63 56 51 45 37 31 24 20 21 20 17 9 358 351 347 338 327 317 309 304 302 299 295 293 291 286 277 267 264 265 263 263 264 258 253 252 250 249 243 233 227 227 224 218 220 223 222 225 225 190 173 177 159 179 210 211 208 211 214 215 215 215 216 216 217 216 211 210 212 211 208 207
82 84 80 79 79 79 80 78 77 72 65 65 64 64 61 59 58 52 44 38 33 29 27 27 23 16 9 2 352 339 323 311 306 306 303 300 299 295 290 285 280 277 273 262 260 263 259 255 257 253 250 246 239 233 231 226 218 220 224 222 226 227 209 198 201 186 162 180 202 207 211 214 216 215 216 217 216 216 218 216 214 216 218 216 213
87 85 80 77 75 71 71 69 67 64 57 57 56 54 55 54 51 44 38 33 29 26 23 23 20 16 12 6 0 350 337 325 317 315 308 303 304 304 298 293 290 288 282 268 257 258 261 259 255 250 250 253 251 244 237 232 230 229 225 221 223 225 222 226 224 204 184 174 183 193 200 207 215 215 214 216 218 218 219 220 219 219 222 222 219
88 88 82 76 71 64 66 67 63 58 51 46 43 43 43 46 46 39 33 27 22 17 13 16 17 13 11 8 4 355 346 338 327 319 313 308 305 306 303 298 295 292 286 276 262 259 262 257 251 250 253 256 255 253 247 241 239 235 231 226 221 218 218 229 231 217 201 188 194 192 188 193 206 211 212 215 218 219 219 221 222 222 223 224 223
87 85 78 71 67 65 70 69 61 55 50 45 41 41 39 41 43 39 34 28 20 15 14 16 14 11 9 5 1 355 348 346 338 325 318 314 310 306 302 299 298 292 285 282 273 265 265 260 256 255 253 252 254 256 252 247 243 239 236 233 226 220 215 215 215 208 199 189 185 186 196 201 207 211 213 216 219 219 219 221 223 224 224 223 224